545  
FPUS83 KFGF 021331  
OPUFGF  
PRAIRIE TO PINES WEATHER ROUNDUP  
NATIONAL WEATHER SERVICE EASTERN NORTH DAKOTA/GRAND FORKS ND  
700 AM CST FRI DEC 02 2022  
 
**SATELLITE DATA USED TO AUGMENT SKY COVER AT AUTOMATED STATIONS**  
***** WEATHER ACROSS EASTERN NORTH DAKOTA *****  
 
CITY SKY/WX TMP DP RH WIND PRES REMARKS  
GRAND FORKS CLOUDY 17 12 80 N25G33 29.56S WCI -1  
GRND FORKS AFB CLOUDY 16 10 79 N17G29 29.56S WCI 0  
GRND FORKS NWS N/A 15 12 89 N20 29.52S WCI -3  
BUXTON NOT AVBL  
DEVILS LAKE FAIR 9 5 85 N20 29.61S WCI -11  
FARGO FAIR 25 21 85 N12 29.49R WCI 14  
WAHPETON ARPT FAIR 27 25 93 SE3 29.45R  

 
 
***** WEATHER ACROSS CENTRAL AND WESTERN NORTH DAKOTA *****  
 
CITY SKY/WX TMP DP RH WIND PRES REMARKS  
JAMESTOWN CLOUDY 17 13 84 N24G35 29.53R WCI -1  
BISMARCK LGT SNOW 14 7 73 N20G26 29.66R WCI -3  
MINOT FLURRIES 11 5 77 NW23G31 29.73R WCI -9  
MINOT AFB NOT AVBL  
GARRISON N/A 13 8 81 N20 29.67R WCI -5  
WILLISTON NOT AVBL  
DICKINSON LGT SNOW 8 4 83 NW17G25 29.68S VSB 1 WCI -10  
HETTINGER LGT SNOW 12 7 80 NW20G28 29.69R WCI -6  

 
 
***** OTHER OBSERVATIONS NORTHEAST NORTH DAKOTA *****  
 
CITY SKY/WX TMP DP RH WIND PRES REMARKS  
WALHALLA CLOUDY 10 7 85 NW16 29.66R WCI -7  
LANGDON CLOUDY 5 7 100 N16 29.60S WCI -14  
CAVALIER CLOUDY 10 9 92 N20G26 29.63S WCI -8  
GRAFTON CLOUDY 14 10 85 N26 29.60R WCI -6  
CANDO PTSUNNY 7 5 92 N13 29.66S WCI -9  
FORT TOTTEN N/A 12 8 84 N8 29.95S WCI 0  
ROLLA FLURRIES 7 5 92 N18G24 29.64R WCI -12  
RUGBY CLOUDY 10 5 79 NW10 29.66R WCI -3  
***** THE ABOVE OBSERVATIONS ARE NON NWS ARE NOT QUALITY  
CONTROLLED AND MAY MIS-REPORT RAIN FOR SNOW...  

 
 
***** OTHER OBSERVATIONS SOUTHEAST NORTH DAKOTA *****  
 
CITY SKY/WX TMP DP RH WIND PRES REMARKS  
COOPERSTOWN CLOUDY 16 16 100 N24 29.56R WCI -3  
VALLEY CITY FLURRIES 18 18 100 N15G24 29.53R WCI 3  
OAKES PTSUNNY 25 25 100 NW15 29.47R WCI 12  
GWINNER SUNNY 23 23 100 N6 29.46R WCI 16  
SHEYENNE NWR N/A 25 23 91 N5 29.95S WCI 19  
BUFFALO NOT AVBL  
WYNDMERE NOT AVBL  
***** THE ABOVE OBSERVATIONS ARE NON NWS ARE NOT QUALITY  
CONTROLLED AND MAY MIS-REPORT RAIN FOR SNOW...  

 
 
***** WEATHER ACROSS NORTHERN MINNESOTA *****  
 
CITY SKY/WX TMP DP RH WIND PRES REMARKS  
FLAG ISLAND FAIR 21 16 79 CALM 29.54F  
WARROAD FAIR 19 16 86 CALM 29.52F  
ROSEAU N/A 21 19 93 N5 29.52F WCI 15  
HALLOCK CLOUDY 16 12 86 NW18G24 29.59R WCI -1  
THF RVR FALLS FAIR 22 21 96 N10 29.52S WCI 11  
HALSTAD NOT AVBL  
FOSSTON FAIR 25 19 80 NE3 29.49S  
BAUDETTE FAIR 22 15 75 NE3 29.52F  
WASKISH FAIR 25 21 86 CALM 29.49F  
CROOKSTON N/A 18 14 86 N16 29.54F WCI 3  

 
***** WEATHER ACROSS CENTRAL AND WEST MINNESOTA *****  
 
CITY SKY/WX TMP DP RH WIND PRES REMARKS  
BEMIDJI FAIR 25 21 87 CALM 29.48S  
PARK RAPIDS FAIR 27 22 81 SE5 29.46S WCI 22  
WADENA FAIR 30 25 80 SE5 29.45S  
DETROIT LAKES FAIR 27 23 86 SE6 29.44F WCI 20  
MOORHEAD FAIR 25 21 86 N9 29.49R WCI 15  
FERGUS FALLS FAIR 30 27 86 SE7 29.45R WCI 23  
ELBOW LAKE FAIR 30 27 90 S8 29.46R WCI 22  
MORRIS MN FAIR 30 27 86 SE8 29.46R WCI 23  
STAPLES N/A 32 27 80 SE6 29.47F  
WHEATON N/A 28 25 86 CALM 29.46R  

 
***** WEATHER ELSEWHERE ACROSS MINNESOTA *****  
 
CITY SKY/WX TMP DP RH WIND PRES REMARKS  
DULUTH FAIR 29 20 69 S8 29.55F WCI 21  
INTRNTL FALLS FAIR 23 16 74 CALM 29.52S  
ELY FAIR 28 19 69 S7 29.53F WCI 21  
CLOQUET FAIR 30 19 64 S10 29.53F WCI 21  
BRAINERD FAIR 34 23 64 S10 29.50F  
HIBBING FAIR 27 18 69 SE5 29.52S WCI 22  
ALEXANDRIA FAIR 30 26 85 SE7 29.46F WCI 23  
SAINT CLOUD FAIR 33 24 69 S14 29.52F WCI 23  
MINNEAPOLIS MOCLDY 30 20 66 S7 29.61F WCI 23  

 
 
***** WEATHER ACROSS SOUTH DAKOTA *****  
 
CITY SKY/WX TMP DP RH WIND PRES REMARKS  
SIOUX FALLS FAIR 33 24 69 S12 29.50F WCI 24  
BROOKINGS FAIR 31 27 85 S10 29.46S WCI 22  
WATERTOWN FAIR 30 25 81 SE10 29.42F WCI 21  
HURON FAIR 36 27 69 CALM 29.45R  
SISSETON N/A 32 25 75 VRB3 29.42S  
ABERDEEN FAIR 26 24 92 NW5 29.47R WCI 20  
MITCHELL FAIR 35 27 72 S15 29.45F  
PIERRE FAIR 26 19 74 N21G33 29.53R WCI 12  
MOBRIDGE FAIR 19 11 70 N22G36 29.57R WCI 2  
RAPID CITY FAIR 19 12 74 N35G49 29.58R WCI -1  

 
 
***** SOME WEATHER IN NEARBY STATES *****  
 
CITY SKY/WX TMP DP RH WIND PRES REMARKS  
GLASGOW MT NOT AVBL  
GREAT FALLS MT CLOUDY -3 -6 87 NW5 29.87R WCI -13  
CHEYENNE WY FAIR 41 26 55 SW14G25 29.53R  
SCOTTSBLUFF NE FAIR 19 15 84 CALM 29.52R  
OMAHA NE MOCLDY 35 25 66 S12 29.63F  
DES MOINES IA MOCLDY 34 23 64 SE13 29.72F WCI 25  
DAVENPORT IA FAIR 40 21 46 S18G28 29.90F  
CHICAGO IL CLOUDY 39 22 50 S16G24 30.00F  
EAU CLAIRE WI FAIR 31 19 61 S14 29.69F WCI 21  
LA CROSSE WI FAIR 32 19 58 VRB5 29.76F  

 
 
***** SOME NATIONAL WEATHER *****  
 
CITY SKY/WX TMP DP RH WIND PRES REMARKS  
LA GUARDIA NY FAIR 35 21 56 CALM 30.55R  
RALEIGH NC FAIR 28 25 88 CALM 30.57R  
ATLANTA GA CLOUDY 43 27 53 SE10 30.46S  
NEW ORLEANS LA FAIR 54 51 90 CALM 30.27R  
OKLAHOMA CITY DRIZZLE 48 48 100 S20G26 29.96S FOG  
ALBUQUERQUE NM FAIR 40 23 50 SE8 30.05R  
SALT LAKE CITY LGT SNOW 27 25 92 N13 29.98R FOG WCI 16  
LOS ANGELES CA CLOUDY 53 51 93 E10 30.10R  
BOISE ID CLOUDY 28 22 78 NW5 30.02R WCI 23  
SEATTLE WA FLURRIES 31 26 82 SE7 30.02S WCI 24  

 
 
*** WEATHER ACROSS MANITOBA...SASKATCHEWAN AND ONTARIO ***  
***ONTARIO***  
 
CITY SKY/WX TMP DP RH WIND PRES REMARKS  
GERALDTON NOT AVBL  
THUNDER BAY CLOUDY 27 21 80 CALM 29.66F  
SIOUX LOOKOUT FLURRIES 21 16 79 E5 29.56F WCI 15  
TORONTO MOCLDY 34 28 80 S6 30.31F  
BIG TROUT LK LGT SNOW -4 -9 77 MISG 29.80F  
PICKLE LAKE FLURRIES 16 14 93 E3 29.58F  
DRYDEN MOCLDY 21 16 79 SE6 29.53F WCI 14  
KENORA MOCLDY 19 16 86 S5 29.53 WCI 13  

 
*** MANITOBA***  
 
CITY SKY/WX TMP DP RH WIND PRES REMARKS  
BRANDON FLURRIES 3 -6 66 N10 29.71R WCI -12  
DAUPHIN CLOUDY -2 -9 71 N15 29.85R WCI -22  
ISLAND LAKE LGT SNOW -6 -11 77 NE9 29.81R WCI -22  
PILOT MOUND N/A 5 0 78 N9 N/A WCI -9  
THE PAS FLURRIES -8 -15 71 N10 29.95S WCI -26  
THOMPSON PTCLDY -27 -33 75 N3 29.98S  
WINNIPEG LGT SNOW 10 9 92 NW22 29.66R BLWGSNOWWCI -9  
LYNN LAKE CLEAR -40 -49 60 W6 29.93F WCI -59  
CHURCHILL PTCLDY -24 -29 76 W9 29.99F WCI -45  
GILLAM CLEAR -22 -27 76 NW6 29.97F WCI -38  

 
***SASKATCHEWAN***  
 
CITY SKY/WX TMP DP RH WIND PRES REMARKS  
ESTEVAN CLOUDY -2 -6 84 NW22G30 29.80R WCI -26  
KINDERSLEY PTCLDY -27 -33 75 W6 29.96R WCI -44  
LLOYDMINSTER PTCLDY -24 -29 76 W9 29.94R HAZE WCI -45  
PRINCE ALBERT FLURRIES -13 -18 77 W7 29.99 WCI -29  
REGINA MOCLDY -13 -18 77 NW21 29.88R WCI -39  
YORKTON PTCLDY -9 -17 70 NW15G21 29.84R WC  
 
CLICK HERE TO GO TO PREVIOUS BULLETINS.

The Nexlab ND Page
The Nexlab MN Page Main Text Page